HKE842 VHHH-ROAH

Flight info

Callsign HKE842
Flight time 2h 0m
Altitude 35000
Route DALOL V631 ENVAR M750 KUDOS R595 MJC Y57 VELNO
Aircraft A320/M-SDE3FGHIRWY/LB1

Departure

Time 2026-04-20 23:12
Airport Hong Kong International Airport (VHHH)

Arrival

Time 2026-04-21 01:13
Airport Naha International Airport (ROAH)
Time Latitude Longitude Altitude Speed Heading
2026-04-20 22:15 22.30678 113.91824 35 ft 0 kts 72°
2026-04-20 23:01 22.30674 113.91811 35 ft 2 kts 71°
2026-04-20 23:01 22.30669 113.91795 35 ft 2 kts 72°
2026-04-20 23:02 22.30664 113.91780 35 ft 2 kts 72°
2026-04-20 23:02 22.30660 113.91765 35 ft 2 kts 72°
2026-04-20 23:02 22.30655 113.91750 35 ft 2 kts 72°
2026-04-20 23:02 22.30651 113.91734 35 ft 2 kts 72°
2026-04-20 23:03 22.30648 113.91719 35 ft 2 kts 104°
2026-04-20 23:03 22.30654 113.91705 35 ft 2 kts 138°
2026-04-20 23:03 22.30662 113.91698 35 ft 1 kts 159°
2026-04-20 23:03 22.30669 113.91697 35 ft 0 kts 161°
2026-04-20 23:05 22.30647 113.91705 35 ft 8 kts 160°
2026-04-20 23:06 22.30573 113.91734 35 ft 12 kts 160°
2026-04-20 23:06 22.30491 113.91766 35 ft 13 kts 160°
2026-04-20 23:06 22.30423 113.91721 35 ft 14 kts 252°
2026-04-20 23:06 22.30379 113.91583 35 ft 23 kts 249°
2026-04-20 23:07 22.30327 113.91413 35 ft 23 kts 254°
2026-04-20 23:07 22.30273 113.91251 35 ft 22 kts 249°
2026-04-20 23:07 22.30222 113.91095 35 ft 21 kts 251°
2026-04-20 23:07 22.30175 113.90942 35 ft 21 kts 251°
2026-04-20 23:08 22.30126 113.90795 35 ft 20 kts 249°
2026-04-20 23:08 22.30079 113.90650 35 ft 20 kts 253°
2026-04-20 23:08 22.30035 113.90506 35 ft 19 kts 251°
2026-04-20 23:08 22.29989 113.90366 35 ft 19 kts 250°
2026-04-20 23:09 22.29941 113.90229 35 ft 19 kts 249°
2026-04-20 23:09 22.29895 113.90094 35 ft 19 kts 250°
2026-04-20 23:09 22.29855 113.89958 35 ft 18 kts 253°
2026-04-20 23:09 22.29780 113.89872 35 ft 17 kts 166°
2026-04-20 23:10 22.29668 113.89920 35 ft 16 kts 152°
2026-04-20 23:10 22.29691 113.89969 35 ft 7 kts 56°
2026-04-20 23:10 22.29694 113.90013 35 ft 9 kts 84°
2026-04-20 23:10 22.29707 113.90077 35 ft 10 kts 72°
2026-04-20 23:11 22.29733 113.90158 35 ft 11 kts 71°
2026-04-20 23:11 22.29747 113.90201 35 ft 12 kts 71°
2026-04-20 23:11 22.29763 113.90252 35 ft 13 kts 71°
2026-04-20 23:11 22.29854 113.90530 35 ft 71 kts 71°
2026-04-20 23:12 22.30088 113.91252 35 ft 129 kts 71°
2026-04-20 23:12 22.30436 113.92326 120 ft 167 kts 71°
2026-04-20 23:12 22.30817 113.93513 602 ft 169 kts 70°
2026-04-20 23:12 22.31200 113.94704 1134 ft 171 kts 70°
2026-04-20 23:13 22.31589 113.95911 1660 ft 172 kts 70°
2026-04-20 23:13 22.31991 113.97162 2035 ft 183 kts 70°
2026-04-20 23:13 22.32221 113.97879 2207 ft 192 kts 70°
2026-04-20 23:14 22.32487 113.98709 2398 ft 201 kts 70°
2026-04-20 23:14 22.32972 114.00216 2638 ft 225 kts 70°
2026-04-20 23:14 22.33494 114.01840 3244 ft 231 kts 70°
2026-04-20 23:14 22.33855 114.03515 3974 ft 232 kts 88°
2026-04-20 23:15 22.33631 114.05235 4626 ft 234 kts 110°
2026-04-20 23:15 22.32844 114.06750 5240 ft 237 kts 131°
2026-04-20 23:15 22.31586 114.07901 5848 ft 240 kts 150°
2026-04-20 23:15 22.30009 114.08600 6327 ft 248 kts 168°
2026-04-20 23:16 22.28289 114.08761 6897 ft 253 kts 180°
2026-04-20 23:16 22.26491 114.08742 7240 ft 267 kts 181°
2026-04-20 23:16 22.24570 114.08708 7678 ft 278 kts 181°
2026-04-20 23:16 22.22619 114.08678 8353 ft 281 kts 181°
2026-04-20 23:17 22.20663 114.08654 9066 ft 284 kts 181°
2026-04-20 23:17 22.18686 114.08652 9776 ft 288 kts 176°
2026-04-20 23:17 22.16741 114.09212 10435 ft 294 kts 152°
2026-04-20 23:17 22.15124 114.10626 10744 ft 308 kts 127°
2026-04-20 23:18 22.14049 114.12654 10934 ft 322 kts 116°
2026-04-20 23:18 22.13033 114.14905 11172 ft 335 kts 117°
2026-04-20 23:18 22.11992 114.17175 11559 ft 341 kts 118°
2026-04-20 23:18 22.10932 114.19448 11962 ft 346 kts 119°
2026-04-20 23:19 22.09827 114.21770 12402 ft 350 kts 119°
2026-04-20 23:19 22.08699 114.24099 12846 ft 353 kts 122°
2026-04-20 23:19 22.07277 114.26246 13295 ft 353 kts 134°
2026-04-20 23:19 22.05462 114.28046 13786 ft 352 kts 145°
2026-04-20 23:20 22.03480 114.29620 14280 ft 354 kts 147°
2026-04-20 23:20 22.01483 114.31157 14751 ft 356 kts 147°
2026-04-20 23:20 21.99444 114.32735 15214 ft 360 kts 146°
2026-04-20 23:20 21.97398 114.34332 15699 ft 363 kts 146°
2026-04-20 23:21 21.95358 114.35934 16174 ft 365 kts 146°
2026-04-20 23:21 21.93305 114.37551 16632 ft 367 kts 146°
2026-04-20 23:21 21.91232 114.39184 17079 ft 370 kts 146°
2026-04-20 23:21 21.89132 114.40835 17536 ft 372 kts 146°
2026-04-20 23:22 21.87066 114.42477 17961 ft 375 kts 143°
2026-04-20 23:22 21.85236 114.44529 18328 ft 382 kts 126°
2026-04-20 23:22 21.83997 114.47048 18695 ft 387 kts 110°
2026-04-20 23:22 21.83226 114.49828 19085 ft 390 kts 105°
2026-04-20 23:23 21.82523 114.52688 19449 ft 393 kts 105°
2026-04-20 23:23 21.81830 114.55519 19791 ft 397 kts 105°
2026-04-20 23:23 21.81115 114.58379 20157 ft 399 kts 105°
2026-04-20 23:23 21.80378 114.61285 20518 ft 401 kts 105°
2026-04-20 23:24 21.79641 114.64162 20849 ft 404 kts 105°
2026-04-20 23:24 21.78888 114.67086 21162 ft 407 kts 106°
2026-04-20 23:24 21.78123 114.70040 21472 ft 410 kts 106°
2026-04-20 23:24 21.77357 114.72993 21770 ft 413 kts 106°
2026-04-20 23:25 21.76588 114.75957 22044 ft 416 kts 105°
2026-04-20 23:25 21.75802 114.78978 22336 ft 418 kts 105°
2026-04-20 23:25 21.75047 114.82004 22631 ft 421 kts 103°
2026-04-20 23:25 21.74526 114.85094 22926 ft 422 kts 96°
2026-04-20 23:26 21.74304 114.88213 23232 ft 424 kts 90°
2026-04-20 23:26 21.74280 114.91373 23538 ft 425 kts 88°
2026-04-20 23:26 21.74300 114.94595 23827 ft 427 kts 88°
2026-04-20 23:26 21.74321 114.97775 24122 ft 429 kts 88°
2026-04-20 23:27 21.74334 115.00996 24427 ft 431 kts 88°
2026-04-20 23:27 21.74341 115.04225 24720 ft 433 kts 88°
2026-04-20 23:27 21.74342 115.07437 25003 ft 435 kts 88°
2026-04-20 23:27 21.74341 115.10712 25305 ft 436 kts 88°
2026-04-20 23:28 21.74340 115.13937 25596 ft 437 kts 88°
2026-04-20 23:28 21.74337 115.17234 25886 ft 439 kts 88°
2026-04-20 23:28 21.74332 115.20497 26155 ft 441 kts 88°
2026-04-20 23:28 21.74326 115.23791 26420 ft 443 kts 88°
2026-04-20 23:29 21.74319 115.27140 26675 ft 446 kts 88°
2026-04-20 23:29 21.74311 115.30440 26950 ft 447 kts 88°
2026-04-20 23:29 21.74303 115.33791 27227 ft 449 kts 88°
2026-04-20 23:29 21.74295 115.37174 27480 ft 451 kts 88°
2026-04-20 23:30 21.74286 115.40509 27742 ft 453 kts 88°
2026-04-20 23:30 21.74278 115.43916 28012 ft 454 kts 88°
2026-04-20 23:30 21.74268 115.47277 28274 ft 455 kts 88°
2026-04-20 23:30 21.74258 115.50695 28542 ft 457 kts 88°
2026-04-20 23:31 21.74247 115.54127 28809 ft 458 kts 88°
2026-04-20 23:31 21.74235 115.57546 29051 ft 460 kts 88°
2026-04-20 23:31 21.74222 115.60963 29298 ft 462 kts 88°
2026-04-20 23:31 21.74207 115.64414 29546 ft 464 kts 88°
2026-04-20 23:32 21.74192 115.67891 29764 ft 466 kts 88°
2026-04-20 23:32 21.74178 115.71381 29987 ft 468 kts 88°
2026-04-20 23:32 21.74163 115.74894 30215 ft 469 kts 88°
2026-04-20 23:32 21.74145 115.78384 30448 ft 471 kts 88°
2026-04-20 23:33 21.74128 115.81876 30654 ft 473 kts 88°
2026-04-20 23:33 21.74111 115.85447 30862 ft 475 kts 88°
2026-04-20 23:33 21.74092 115.88978 31081 ft 476 kts 88°
2026-04-20 23:33 21.74073 115.92524 31385 ft 475 kts 88°
2026-04-20 23:34 21.74052 115.96049 31695 ft 474 kts 88°
2026-04-20 23:34 21.74032 115.99607 31980 ft 474 kts 88°
2026-04-20 23:34 21.74010 116.03150 32250 ft 474 kts 87°
2026-04-20 23:34 21.73988 116.06673 32515 ft 473 kts 87°
2026-04-20 23:35 21.73967 116.10218 32772 ft 473 kts 87°
2026-04-20 23:35 21.73924 116.17278 33273 ft 474 kts 88°
2026-04-20 23:35 21.73899 116.20780 33498 ft 474 kts 88°
2026-04-20 23:36 21.73875 116.24360 33693 ft 476 kts 88°
2026-04-20 23:36 21.73850 116.27873 33879 ft 477 kts 88°
2026-04-20 23:36 21.73821 116.31467 34106 ft 477 kts 88°
2026-04-20 23:36 21.73795 116.34995 34310 ft 478 kts 88°
2026-04-20 23:37 21.73766 116.38576 34477 ft 480 kts 88°
2026-04-20 23:37 21.73736 116.42172 34673 ft 480 kts 88°
2026-04-20 23:37 21.73706 116.45748 34866 ft 481 kts 88°
2026-04-20 23:37 21.73675 116.49358 34967 ft 482 kts 88°
2026-04-20 23:38 21.73643 116.52919 34969 ft 483 kts 89°
2026-04-20 23:38 21.73577 116.60179 34971 ft 484 kts 89°
2026-04-20 23:39 21.73506 116.67400 34971 ft 485 kts 89°
2026-04-20 23:39 21.73797 116.74596 34971 ft 482 kts 82°
2026-04-20 23:40 21.74940 116.81638 34972 ft 480 kts 73°
2026-04-20 23:40 21.76935 116.88456 34973 ft 477 kts 66°
2026-04-20 23:41 21.79378 116.95076 34989 ft 476 kts 65°
2026-04-20 23:41 21.81792 117.01651 34975 ft 476 kts 65°
2026-04-20 23:42 21.84200 117.08301 34974 ft 477 kts 65°
2026-04-20 23:42 21.86600 117.14949 34974 ft 478 kts 66°
2026-04-20 23:43 21.89002 117.21621 34973 ft 479 kts 66°
2026-04-20 23:43 21.91387 117.28256 34974 ft 479 kts 66°
2026-04-20 23:44 21.93801 117.34981 34974 ft 480 kts 66°
2026-04-20 23:44 21.96191 117.41657 34968 ft 479 kts 66°
2026-04-20 23:45 21.98685 117.48309 34967 ft 478 kts 62°
2026-04-20 23:45 22.01772 117.54610 34969 ft 477 kts 56°
2026-04-20 23:46 22.05230 117.60683 34972 ft 477 kts 55°
2026-04-20 23:46 22.08703 117.66760 34970 ft 477 kts 56°
2026-04-20 23:47 22.12182 117.72883 34974 ft 477 kts 56°
2026-04-20 23:47 22.15638 117.78995 34972 ft 477 kts 56°
2026-04-20 23:48 22.19098 117.85113 34977 ft 477 kts 56°
2026-04-20 23:48 22.22532 117.91200 34977 ft 478 kts 56°
2026-04-20 23:49 22.26001 117.97351 34979 ft 479 kts 56°
2026-04-20 23:49 22.29490 118.03470 34982 ft 479 kts 55°
2026-04-20 23:50 22.33039 118.09525 34977 ft 480 kts 55°
2026-04-20 23:50 22.36613 118.15642 34974 ft 480 kts 56°
2026-04-20 23:51 22.40151 118.21722 34974 ft 480 kts 56°
2026-04-20 23:51 22.43654 118.27867 34978 ft 481 kts 56°
2026-04-20 23:52 22.47152 118.34058 34990 ft 481 kts 56°
2026-04-20 23:52 22.50627 118.40214 34990 ft 481 kts 56°
2026-04-20 23:53 22.54103 118.46365 34996 ft 482 kts 57°
2026-04-20 23:53 22.57590 118.52544 34995 ft 482 kts 56°
2026-04-20 23:54 22.61114 118.58713 34996 ft 483 kts 56°
2026-04-20 23:54 22.64636 118.64885 34998 ft 483 kts 56°
2026-04-20 23:55 22.68165 118.71085 34998 ft 483 kts 57°
2026-04-20 23:55 22.71685 118.77284 34997 ft 484 kts 57°
2026-04-20 23:56 22.75215 118.83504 34999 ft 485 kts 57°
2026-04-20 23:56 22.78737 118.89719 35000 ft 485 kts 57°
2026-04-20 23:57 22.82249 118.95927 34999 ft 485 kts 57°
2026-04-20 23:57 22.85763 119.02139 35001 ft 485 kts 57°
2026-04-20 23:58 22.89279 119.08370 35001 ft 485 kts 57°
2026-04-20 23:58 22.92806 119.14627 34999 ft 486 kts 57°
2026-04-20 23:59 22.96314 119.20857 35004 ft 485 kts 57°
2026-04-20 23:59 22.99834 119.27110 35006 ft 486 kts 57°
2026-04-21 00:00 23.03342 119.33355 35002 ft 487 kts 57°
2026-04-21 00:00 23.06864 119.39635 35006 ft 486 kts 57°
2026-04-21 00:01 23.10373 119.45898 35004 ft 488 kts 57°
2026-04-21 00:01 23.13911 119.52220 35004 ft 487 kts 57°
2026-04-21 00:02 23.17426 119.58514 35004 ft 488 kts 57°
2026-04-21 00:02 23.20932 119.64782 35004 ft 488 kts 57°
2026-04-21 00:03 23.24449 119.71074 35005 ft 488 kts 58°
2026-04-21 00:03 23.27984 119.77419 35011 ft 489 kts 58°
2026-04-21 00:04 23.31503 119.83746 35011 ft 490 kts 58°
2026-04-21 00:04 23.35201 119.89957 35012 ft 489 kts 52°
2026-04-21 00:05 23.39516 119.95648 35011 ft 487 kts 45°
2026-04-21 00:05 23.44362 120.00798 35011 ft 487 kts 41°
2026-04-21 00:06 23.49280 120.05808 35015 ft 487 kts 41°
2026-04-21 00:06 23.54217 120.10871 35016 ft 487 kts 41°
2026-04-21 00:07 23.59152 120.15956 35022 ft 486 kts 41°
2026-04-21 00:07 23.64052 120.21021 35014 ft 486 kts 41°
2026-04-21 00:08 23.68967 120.26104 35015 ft 486 kts 41°
2026-04-21 00:08 23.73847 120.31158 35016 ft 487 kts 41°
2026-04-21 00:09 23.78757 120.36249 35027 ft 487 kts 41°
2026-04-21 00:09 23.83672 120.41351 35024 ft 487 kts 41°
2026-04-21 00:10 23.88588 120.46461 35026 ft 487 kts 41°
2026-04-21 00:10 23.93480 120.51566 35026 ft 487 kts 41°
2026-04-21 00:11 23.98346 120.56693 35037 ft 487 kts 41°
2026-04-21 00:11 24.03236 120.61855 35046 ft 488 kts 41°
2026-04-21 00:12 24.08102 120.67000 35050 ft 486 kts 42°
2026-04-21 00:12 24.12959 120.72140 35061 ft 486 kts 42°
2026-04-21 00:13 24.17826 120.77298 35065 ft 487 kts 42°
2026-04-21 00:13 24.22677 120.82441 35089 ft 487 kts 42°
2026-04-21 00:14 24.26929 120.86952 35116 ft 487 kts 42°
2026-04-21 00:14 24.31806 120.92138 35154 ft 488 kts 42°
2026-04-21 00:15 24.36677 120.97323 35185 ft 488 kts 42°
2026-04-21 00:15 24.41482 121.02606 35205 ft 489 kts 46°
2026-04-21 00:16 24.45841 121.08353 35211 ft 490 kts 50°
2026-04-21 00:16 24.50089 121.14243 35221 ft 490 kts 50°
2026-04-21 00:17 24.54303 121.20084 35225 ft 489 kts 50°
2026-04-21 00:17 24.58535 121.25933 35210 ft 490 kts 50°
2026-04-21 00:18 24.62764 121.31784 35187 ft 491 kts 50°
2026-04-21 00:18 24.66992 121.37642 35156 ft 490 kts 50°
2026-04-21 00:19 24.71227 121.43513 35126 ft 491 kts 50°
2026-04-21 00:19 24.75485 121.49430 35104 ft 491 kts 50°
2026-04-21 00:20 24.79713 121.55311 35092 ft 491 kts 50°
2026-04-21 00:20 24.83931 121.61182 35071 ft 491 kts 50°
2026-04-21 00:21 24.88171 121.67089 35064 ft 491 kts 50°
2026-04-21 00:21 24.92546 121.72875 35063 ft 491 kts 47°
2026-04-21 00:22 24.97019 121.78544 35069 ft 492 kts 47°
2026-04-21 00:22 25.01504 121.84243 35070 ft 492 kts 47°
2026-04-21 00:23 25.05974 121.89945 35065 ft 492 kts 47°
2026-04-21 00:23 25.09894 121.96089 35068 ft 494 kts 63°
2026-04-21 00:24 25.12068 122.03252 35061 ft 493 kts 82°
2026-04-21 00:24 25.12312 122.10696 35067 ft 488 kts 97°
2026-04-21 00:25 25.11583 122.18140 35062 ft 487 kts 99°
2026-04-21 00:25 25.10889 122.25557 35060 ft 488 kts 98°
2026-04-21 00:26 25.10231 122.32996 35064 ft 488 kts 99°
2026-04-21 00:26 25.09515 122.40382 35064 ft 487 kts 99°
2026-04-21 00:27 25.08872 122.46989 35063 ft 487 kts 99°
2026-04-21 00:27 25.08152 122.54408 35063 ft 488 kts 99°
2026-04-21 00:28 25.07429 122.61845 35066 ft 487 kts 99°
2026-04-21 00:28 25.06704 122.69264 35064 ft 487 kts 99°
2026-04-21 00:29 25.05979 122.76634 35061 ft 487 kts 99°
2026-04-21 00:29 25.05251 122.84027 35064 ft 487 kts 99°
2026-04-21 00:30 25.04515 122.91450 35063 ft 486 kts 99°
2026-04-21 00:30 25.03775 122.98860 35065 ft 486 kts 99°
2026-04-21 00:31 25.03038 123.06222 35063 ft 487 kts 99°
2026-04-21 00:31 25.02297 123.13618 35064 ft 486 kts 99°
2026-04-21 00:32 25.01549 123.21025 35066 ft 486 kts 99°
2026-04-21 00:32 25.00798 123.28397 35067 ft 486 kts 99°
2026-04-21 00:33 25.00042 123.35780 35067 ft 487 kts 99°
2026-04-21 00:33 24.99280 123.43200 35070 ft 487 kts 99°
2026-04-21 00:34 24.98516 123.50610 35072 ft 487 kts 99°
2026-04-21 00:34 24.97752 123.57980 35072 ft 488 kts 99°
2026-04-21 00:35 24.96977 123.65402 35067 ft 487 kts 99°
2026-04-21 00:35 24.96205 123.72786 35076 ft 486 kts 99°
2026-04-21 00:36 24.95429 123.80168 35078 ft 487 kts 99°
2026-04-21 00:36 24.94651 123.87544 35078 ft 486 kts 99°
2026-04-21 00:37 24.93868 123.94934 35079 ft 486 kts 99°
2026-04-21 00:37 24.93073 124.02296 35080 ft 486 kts 100°
2026-04-21 00:38 24.92207 124.09675 35084 ft 487 kts 100°
2026-04-21 00:38 24.91333 124.17066 35082 ft 487 kts 100°
2026-04-21 00:39 24.90461 124.24463 35082 ft 487 kts 100°
2026-04-21 00:39 24.89588 124.31853 35082 ft 487 kts 99°
2026-04-21 00:40 24.88716 124.39225 35084 ft 487 kts 99°
2026-04-21 00:40 24.87842 124.46572 35081 ft 486 kts 100°
2026-04-21 00:41 24.86964 124.53908 35086 ft 485 kts 99°
2026-04-21 00:41 24.86080 124.61274 35081 ft 486 kts 100°
2026-04-21 00:42 24.85195 124.68625 35081 ft 486 kts 100°
2026-04-21 00:42 24.84303 124.75990 35083 ft 486 kts 100°
2026-04-21 00:43 24.83408 124.83356 35081 ft 486 kts 100°
2026-04-21 00:43 24.82514 124.90683 35083 ft 486 kts 100°
2026-04-21 00:44 24.81613 124.98025 35081 ft 486 kts 100°
2026-04-21 00:44 24.80704 125.05409 35081 ft 486 kts 100°
2026-04-21 00:45 24.79340 125.16444 35078 ft 487 kts 100°
2026-04-21 00:45 24.78811 125.23833 35075 ft 489 kts 89°
2026-04-21 00:46 24.79858 125.31186 35076 ft 490 kts 73°
2026-04-21 00:46 24.82551 125.38063 35078 ft 488 kts 58°
2026-04-21 00:47 24.86151 125.44377 35083 ft 488 kts 55°
2026-04-21 00:47 24.89787 125.50652 35082 ft 488 kts 56°
2026-04-21 00:48 24.93391 125.56967 35079 ft 489 kts 56°
2026-04-21 00:48 24.96976 125.63306 35082 ft 488 kts 56°
2026-04-21 00:49 25.00567 125.69672 35082 ft 489 kts 56°
2026-04-21 00:49 25.04147 125.76028 35083 ft 489 kts 57°
2026-04-21 00:50 25.07738 125.82416 34878 ft 486 kts 56°
2026-04-21 00:50 25.09510 125.85571 33952 ft 492 kts 56°
2026-04-21 00:50 25.11320 125.88790 32809 ft 500 kts 56°
2026-04-21 00:51 25.13148 125.92045 31916 ft 502 kts 56°
2026-04-21 00:51 25.14993 125.95338 31086 ft 503 kts 56°
2026-04-21 00:51 25.16826 125.98609 30279 ft 503 kts 56°
2026-04-21 00:51 25.18638 126.01846 29680 ft 498 kts 56°
2026-04-21 00:52 25.20448 126.05080 29152 ft 491 kts 56°
2026-04-21 00:52 25.22232 126.08270 28604 ft 485 kts 56°
2026-04-21 00:52 25.23989 126.11414 28032 ft 481 kts 56°
2026-04-21 00:52 25.25742 126.14553 27459 ft 476 kts 57°
2026-04-21 00:53 25.27453 126.17624 26885 ft 472 kts 57°
2026-04-21 00:53 25.29186 126.20737 26208 ft 471 kts 57°
2026-04-21 00:53 25.30895 126.23807 25634 ft 467 kts 57°
2026-04-21 00:53 25.32584 126.26843 25106 ft 462 kts 57°
2026-04-21 00:54 25.34246 126.29833 24595 ft 457 kts 57°
2026-04-21 00:54 25.35895 126.32799 24086 ft 452 kts 57°
2026-04-21 00:54 25.37528 126.35738 23590 ft 447 kts 57°
2026-04-21 00:54 25.39138 126.38635 23013 ft 443 kts 57°
2026-04-21 00:55 25.40740 126.41519 22525 ft 437 kts 58°
2026-04-21 00:55 25.42322 126.44373 22161 ft 433 kts 58°
2026-04-21 00:55 25.43891 126.47207 21791 ft 431 kts 57°
2026-04-21 00:55 25.45452 126.50028 21314 ft 432 kts 57°
2026-04-21 00:56 25.47039 126.52891 20712 ft 431 kts 57°
2026-04-21 00:56 25.48583 126.55683 20174 ft 429 kts 58°
2026-04-21 00:56 25.50143 126.58520 19650 ft 426 kts 58°
2026-04-21 00:56 25.51676 126.61310 19146 ft 423 kts 58°
2026-04-21 00:57 25.53193 126.64074 18639 ft 420 kts 58°
2026-04-21 00:57 25.54699 126.66818 18124 ft 418 kts 58°
2026-04-21 00:57 25.56205 126.69564 17604 ft 415 kts 59°
2026-04-21 00:57 25.57686 126.72264 17091 ft 411 kts 59°
2026-04-21 00:58 25.59162 126.74957 16582 ft 407 kts 59°
2026-04-21 00:58 25.60624 126.77625 16078 ft 404 kts 59°
2026-04-21 00:58 25.62085 126.80292 15576 ft 401 kts 59°
2026-04-21 00:58 25.63514 126.82901 15086 ft 398 kts 59°
2026-04-21 00:59 25.64938 126.85503 14603 ft 394 kts 59°
2026-04-21 00:59 25.66349 126.88083 14130 ft 389 kts 59°
2026-04-21 00:59 25.67731 126.90613 13671 ft 385 kts 59°
2026-04-21 00:59 25.69118 126.93153 13218 ft 380 kts 59°
2026-04-21 01:00 25.70469 126.95626 12798 ft 375 kts 59°
2026-04-21 01:00 25.71814 126.98091 12363 ft 372 kts 59°
2026-04-21 01:00 25.73145 127.00534 11918 ft 368 kts 59°
2026-04-21 01:00 25.74468 127.02960 11466 ft 365 kts 59°
2026-04-21 01:01 25.75768 127.05349 11013 ft 363 kts 59°
2026-04-21 01:01 25.77071 127.07744 10558 ft 360 kts 59°
2026-04-21 01:01 25.78347 127.10089 10266 ft 351 kts 59°
2026-04-21 01:01 25.79574 127.12350 10126 ft 339 kts 59°
2026-04-21 01:02 25.80770 127.14558 10000 ft 327 kts 59°
2026-04-21 01:02 25.81937 127.16712 9721 ft 319 kts 59°
2026-04-21 01:02 25.83051 127.18768 9393 ft 311 kts 59°
2026-04-21 01:02 25.84156 127.20808 9069 ft 302 kts 58°
2026-04-21 01:03 25.85228 127.22775 8726 ft 295 kts 59°
2026-04-21 01:03 25.86275 127.24709 8297 ft 291 kts 58°
2026-04-21 01:03 25.87306 127.26614 7913 ft 287 kts 58°
2026-04-21 01:03 25.88334 127.28509 7558 ft 281 kts 57°
2026-04-21 01:04 25.89288 127.30366 7220 ft 277 kts 64°
2026-04-21 01:04 25.89987 127.32330 6884 ft 273 kts 72°
2026-04-21 01:04 25.90487 127.34340 6552 ft 269 kts 75°
2026-04-21 01:04 25.90942 127.36352 6227 ft 266 kts 73°
2026-04-21 01:05 25.91391 127.38327 5905 ft 262 kts 73°
2026-04-21 01:05 25.91843 127.40282 5588 ft 259 kts 73°
2026-04-21 01:05 25.92285 127.42204 5275 ft 259 kts 72°
2026-04-21 01:05 25.92746 127.44156 4953 ft 261 kts 73°
2026-04-21 01:06 25.93200 127.46098 4638 ft 262 kts 73°
2026-04-21 01:06 25.93661 127.48068 4309 ft 263 kts 73°
2026-04-21 01:06 25.94119 127.50026 3986 ft 263 kts 73°
2026-04-21 01:06 25.94579 127.51995 3658 ft 263 kts 73°
2026-04-21 01:07 25.95027 127.53928 3383 ft 259 kts 73°
2026-04-21 01:07 25.95466 127.55823 3351 ft 244 kts 73°
2026-04-21 01:07 25.95878 127.57597 3318 ft 231 kts 72°
2026-04-21 01:07 25.96487 127.59184 3226 ft 217 kts 44°
2026-04-21 01:08 25.97690 127.60045 3196 ft 201 kts 22°
2026-04-21 01:08 25.98949 127.60692 3086 ft 195 kts 24°
2026-04-21 01:08 26.00154 127.61358 2962 ft 192 kts 25°
2026-04-21 01:08 26.01338 127.62032 2816 ft 191 kts 26°
2026-04-21 01:09 26.02528 127.62717 2590 ft 190 kts 26°
2026-04-21 01:09 26.03701 127.63393 2284 ft 189 kts 24°
2026-04-21 01:09 26.04942 127.63796 2031 ft 183 kts
2026-04-21 01:09 26.06167 127.63879 1981 ft 166 kts 360°
2026-04-21 01:10 26.07236 127.63860 1970 ft 144 kts 358°
2026-04-21 01:10 26.08227 127.63814 1881 ft 137 kts 357°
2026-04-21 01:10 26.09149 127.63768 1684 ft 130 kts 357°
2026-04-21 01:10 26.10050 127.63724 1513 ft 129 kts 358°
2026-04-21 01:11 26.10953 127.63683 1343 ft 129 kts 357°
2026-04-21 01:11 26.11847 127.63638 1178 ft 128 kts 357°
2026-04-21 01:11 26.12746 127.63597 1008 ft 128 kts 357°
2026-04-21 01:11 26.13641 127.63554 841 ft 127 kts 357°
2026-04-21 01:12 26.14525 127.63514 671 ft 127 kts 357°
2026-04-21 01:12 26.15404 127.63474 506 ft 127 kts 356°
2026-04-21 01:12 26.16288 127.63432 336 ft 126 kts 356°
2026-04-21 01:12 26.17177 127.63388 171 ft 126 kts 356°
2026-04-21 01:13 26.18049 127.63348 31 ft 125 kts 356°
2026-04-21 01:13 26.18833 127.63309 12 ft 92 kts 356°
2026-04-21 01:13 26.19297 127.63290 12 ft 40 kts
2026-04-21 01:13 26.19544 127.63393 12 ft 34 kts 30°
2026-04-21 01:14 26.19758 127.63458 12 ft 32 kts 357°
2026-04-21 01:14 26.19977 127.63444 12 ft 30 kts 357°
2026-04-21 01:14 26.20147 127.63439 12 ft 22 kts 359°
2026-04-21 01:14 26.20218 127.63552 12 ft 20 kts 87°
2026-04-21 01:15 26.20226 127.63722 12 ft 24 kts 89°
2026-04-21 01:15 26.20235 127.63911 12 ft 24 kts 86°
2026-04-21 01:15 26.20245 127.64097 12 ft 22 kts 89°
2026-04-21 01:15 26.20244 127.64231 12 ft 8 kts 94°
2026-04-21 01:16 26.20247 127.64298 12 ft 10 kts 58°
2026-04-21 01:16 26.20319 127.64336 13 ft 12 kts 38°
2026-04-21 01:16 26.20337 127.64432 13 ft 13 kts 84°
2026-04-21 01:16 26.20347 127.64588 13 ft 19 kts 91°
2026-04-21 01:17 26.20398 127.64690 13 ft 17 kts 26°
2026-04-21 01:17 26.20524 127.64747 13 ft 17 kts
2026-04-21 01:17 26.20637 127.64741 13 ft 12 kts 355°
2026-04-21 01:17 26.20723 127.64736 13 ft 12 kts 357°
2026-04-21 01:18 26.20797 127.64735 13 ft 7 kts 360°
2026-04-21 01:18 26.20855 127.64735 13 ft 9 kts 359°
2026-04-21 01:18 26.20916 127.64779 13 ft 11 kts 66°
2026-04-21 01:18 26.20934 127.64874 13 ft 12 kts 53°
2026-04-21 01:19 26.20997 127.64889 13 ft 4 kts 51°
2026-04-21 01:19 26.21004 127.64949 13 ft 8 kts 86°
2026-04-21 01:19 26.21006 127.64982 13 ft 0 kts 88°
2026-04-21 01:19 26.21006 127.64983 13 ft 0 kts 88°